Portland, OR

2:32 AM PST on December 10, 2019 (GMT -0800)
Portland International

Weather History for KPDX - November, 2019

Change the Weather History Date:

Monday, November 18, 2019

  Actual Average Record
Temperature  
Mean Temperature 54 °F 46 °F  
Max Temperature 56 °F 52 °F 61 °F (2003)
Min Temperature 52 °F 40 °F 24 °F (2000)
Degree Days  
Heating Degree Days 11 19  
Month to date heating degree days 276 302  
Since 1 July heating degree days 773 720  
Cooling Degree Days 0 0  
Month to date cooling degree days 0 0  
Year to date cooling degree days 564 424  
Growing Degree Days 4 (Base 50)    
Moisture  
Dew Point 51 °F    
Average Humidity 92    
Maximum Humidity 100    
Minimum Humidity 83    
Precipitation  
Precipitation 0.10 in 0.20 in 1.99 in (1946)
Month to date precipitation 0.72 3.21  
Year to date precipitation 21.48 28.12  
Sea Level Pressure  
Sea Level Pressure 29.91 in    
Wind  
Wind Speed 6 mph (South)    
Max Wind Speed 23 mph    
Max Gust Speed 27 mph    
Visibility 6 miles    
Events Rain    
T = Trace of Precipitation, MM = Missing Value Source: NWS Daily Summary

Daily Weather History Graph

Daily Weather History Graph

Search for Another Location

Airport or City:

Astronomy

Nov. 18, 2019 Rise Set
Actual Time 7:13 AM PST 4:36 PM PST
Civil Twilight 6:41 AM PST 5:09 PM PST
Nautical Twilight 6:05 AM PST 5:45 PM PST
Astronomical Twilight 5:29 AM PST 6:20 PM PST
Moon 10:28 PM PST (11/18) 12:50 PM PST (11/18)
Length of Visible Light 10h 28m
Length of Day
9h 23m
Waning Gibbous, 62% of the Moon is Illuminated
Nov 18
Waning Gibbous
Nov 19
Last Quarter
Nov 26
New
Dec 3
First Quarter
Dec 11
Full

Hourly Weather History & Observations

Time (PST) Temp. Dew Point Humidity Pressure Visibility Wind Dir Wind Speed Gust Speed Precip Events Conditions
12:45 AM 53.1 °F 51.1 °F 93% 30.17 in 1.0 mi NW 3.5 mph - N/A   Overcast
12:53 AM 53.1 °F 51.1 °F 93% 30.17 in 1.0 mi WNW 3.5 mph - N/A   Overcast
12:59 AM 53.1 °F 51.1 °F 93% 30.17 in 2.5 mi NW 5.8 mph - N/A   Overcast
1:27 AM 53.1 °F 51.1 °F 93% 30.14 in 2.5 mi Calm Calm - N/A   Overcast
1:53 AM 53.1 °F 52.0 °F 96% 30.14 in 2.5 mi West 3.5 mph - N/A   Overcast
2:21 AM 53.1 °F 51.1 °F 93% 30.13 in 2.5 mi NW 4.6 mph - N/A   Overcast
2:29 AM 53.1 °F 51.1 °F 93% 30.12 in 6.0 mi NNW 3.5 mph - N/A   Overcast
2:53 AM 53.1 °F 51.1 °F 93% 30.12 in 5.0 mi West 5.8 mph - N/A   Overcast
3:31 AM 53.1 °F 51.1 °F 93% 30.10 in 0.2 mi West 4.6 mph - N/A   Overcast
3:53 AM 53.1 °F 51.1 °F 93% 30.08 in 0.2 mi WNW 4.6 mph - N/A   Overcast
4:53 AM 52.0 °F 51.1 °F 97% 30.06 in 0.2 mi Calm Calm - N/A   Overcast
5:53 AM 52.0 °F 51.1 °F 97% 30.03 in 0.2 mi Calm Calm - N/A   Overcast
6:09 AM 52.0 °F 51.1 °F 97% 30.02 in 0.2 mi Calm Calm - N/A   Overcast
6:53 AM 52.0 °F 50.0 °F 93% 30.00 in 0.2 mi North 3.5 mph - N/A   Overcast
7:53 AM 52.0 °F 51.1 °F 97% 29.98 in 0.2 mi Calm Calm - N/A   Mist
8:14 AM 53.1 °F 51.1 °F 93% 29.97 in 2.0 mi Calm Calm - N/A   Overcast
8:20 AM 53.1 °F 51.1 °F 93% 29.97 in 2.0 mi Calm Calm - N/A   Overcast
8:53 AM 53.1 °F 51.1 °F 93% 29.95 in 2.0 mi Calm Calm - N/A   Overcast
9:53 AM 53.1 °F 48.9 °F 86% 29.95 in 7.0 mi East 6.9 mph - N/A   Overcast
10:53 AM 54.0 °F 50.0 °F 86% 29.95 in 10.0 mi East 8.1 mph - N/A   Overcast
11:30 AM 55.0 °F 50.0 °F 83% 29.93 in 10.0 mi SE 13.8 mph - N/A   Overcast
11:53 AM 55.0 °F 50.0 °F 83% 29.91 in 10.0 mi ESE 8.1 mph - N/A   Overcast
12:53 PM 54.0 °F 50.0 °F 86% 29.80 in 10.0 mi ESE 21.9 mph - N/A   Overcast
1:53 PM 55.9 °F 50.0 °F 80% 29.79 in 10.0 mi SE 6.9 mph - N/A   Overcast
2:53 PM 55.9 °F 51.1 °F 84% 29.76 in 10.0 mi Calm Calm - 0.00 in Rain Light Rain
3:53 PM 54.0 °F 50.0 °F 86% 29.73 in 6.0 mi ESE 10.4 mph - 0.01 in Rain Rain
4:00 PM 54.0 °F 48.9 °F 83% 29.73 in 6.0 mi ESE 8.1 mph - 0.01 in Rain Light Rain
4:20 PM 53.1 °F 51.1 °F 93% 29.72 in 2.5 mi ESE 12.7 mph - 0.04 in Rain Rain
4:25 PM 53.6 °F 51.8 °F 94% 29.72 in 3.0 mi ESE 15.0 mph - N/A Rain Light Rain
4:53 PM 52.0 °F 51.1 °F 97% 29.72 in 10.0 mi ESE 17.3 mph - 0.09 in Rain Light Rain
5:53 PM 54.0 °F 53.1 °F 97% 29.72 in 10.0 mi ESE 10.4 mph - 0.00 in   Overcast
6:29 PM 57.9 °F 55.0 °F 90% 29.71 in 10.0 mi South 17.3 mph 25.3 mph 0.00 in   Mostly Cloudy
6:38 PM 57.9 °F 55.9 °F 93% 29.71 in 10.0 mi South 15.0 mph 23.0 mph 0.00 in   Mostly Cloudy
6:53 PM 57.9 °F 55.0 °F 90% 29.73 in 10.0 mi SSW 12.7 mph - 0.00 in   Mostly Cloudy
7:53 PM 57.0 °F 48.9 °F 74% 29.74 in 10.0 mi SW 8.1 mph - N/A   Scattered Clouds
8:53 PM 55.0 °F 48.0 °F 77% 29.75 in 10.0 mi SSW 10.4 mph - N/A   Overcast
9:53 PM 55.0 °F 48.0 °F 77% 29.75 in 10.0 mi SSW 10.4 mph - N/A   Overcast
10:53 PM 54.0 °F 48.0 °F 80% 29.74 in 10.0 mi SW 9.2 mph - 0.01 in   Mostly Cloudy
11:53 PM 54.0 °F 46.9 °F 77% 29.75 in 10.0 mi SSW 12.7 mph - N/A   Overcast